CZ-4C R/B, 43264

Orbit data source: Space-Track

CZ-4C R/B, 43264 is space debris in SSO originally from a launch on Sat, 31 Mar 2018 UTC launched from the Taiyaun Space Center, China (TSC). Debris objects in space refer to the collection of defunct objects orbiting the Earth. Examples of debris include non-operational satellites, rocket bodies, and fragments generated from explosions, collisions, or faulty payload assembly.

Loading next visibility...
Identifier
43264, 2018-031F
Orbit
SSO
Country
Flag of CNCN / PRC
Related business
Manufacturer
SAST
Mission
Spacecraft
Bus & Motor
CZ-4 STAGE 3, Unknown motor
Mass
~1,000 kg wet, ~1,000 kg dry
Launch date (UTC)
2018-03-31 (8 years ago)
Launch vehicle
Unknown
Launch site
Taiyaun Space Center, China (TSC)
Object type
Payload
Rocket body
Debris
Shape & HBR
Cyl, 1.4 m
Radar Cross Section
7.676 m², Large (>1 m²)

Expand to show TLE details & history
Last TLE update: 4 hours ago

TLE from 4 hours ago
0 CZ-4C R/B
1 43264U 18031F   26035.17277817  .00008041  00000-0  32470-3 0  9990
2 43264  98.1342 305.3530 0081931 135.4448 225.3412 15.21975601431013
Epoch: 2026-02-04T04:08Z
TLE epoch observation values (Epoch: 2026-02-04T04:08:48.033Z)
Latitude
-0.00007°
Longitude
108.80971°
Altitude
542.803 km
Speed
7.569 km/s
True Right ascension
20h 21m 24s
True Declination
0° 00' 00"
Sunlit
Object was in daylight at epoch
Visualization orbit readout
Latitude
Unknown
Longitude
Unknown
Altitude
Unknown
Speed
Unknown
Apparent Right ascension
Unknown
Apparent Declination
Unknown
Sunlit
N/A
Visualization observer readout
Local Sidereal Time
10:06:32
Azimuth
Unknown
Elevation
Unknown
Doppler factor
Unknown
Orbital elements
Apogee altitude
553.205 km
Perigee altitude
440.55 km
Semi-major axis
6,875.015 km
Eccentricity
0.00819
Inclination
98.1342°
RAAN
305.353°
Arg. of periapsis
135.4448°
True anomaly
224.67817°
Mean anomaly
225.3412°
Eccentric anomaly
225.00921°
Mean motion
3.80744 °/min
Orbital period
94.55 mins
BSTAR
0.0003247
Loading maneuver chart data...
Computing Atmospheric mass density...
Loading historical data...
Loading historical data...
Loading historical data...
Loading historical data...
Loading historical data...
Loading historical data...
Loading historical data...

Documentation

Showing up to 5 results
|